LSZCLSZB

Guest
Details From LSZC - Buochs
To LSZB - Bern-Belp
Flight Number -
Tags generated
Created
Modified
Stats Distance 38 nm / 71 km
Max Altitude 1,900 ft / 579 m
Waypoints 3
Social Downloads 2
Likes 0
Share VATSIM

Download

Looking for another format? Having issues loading an existing format? Contact us
Advertisement - Login to hide

Notes

Basic altitude profile: - Ascent Rate: 800ft/min - Ascent Speed: 250kts - Cruise Altitude: 9000ft - Cruise Speed: 420kts - Descent Rate: 1000ft/min - Descent Speed: 250kts Options: - Use NATs: yes - Use PACOTS: yes - Use low airways: yes - Use high airways: yes

Route

LSZC KONOL LSZB

ID Type Via Altitude Latitude Longitude Leg Dist Tot Dist Heading (true) Name
O LSZC APT - 0 ft / 0 m 46.97319˚ 8.39736˚ - 0 nm - Buochs
KONOL FIX - 1,900 ft / 579 m 46.99528˚ 7.68083˚ 29 nm 29 nm 273° / 272° -
O LSZB APT - 0 ft / 0 m 46.91255˚ 7.49767˚ 9 nm 38 nm 237° / 236° Bern-Belp

Altitude Profile

Advertisement - Login to hide

LSZC

Details ICAO LSZC (BXO)
Name Buochs
Region Switzerland
Timezone Europe/Zurich (UTC+2.0)
Stats Elevation 1,475 ft / 450 m (AMSL)
Location 46.973188° 8.397360°
Runways 2
Magnetic Variation 2.359° E

METAR

LSZC 221750Z AUTO VRB05KT 9999 -TSRA SCT060CB BKN080 BKN110 20/12 Q1012 RETS

Decode

TAF

Not found

Departure Runways

ID Width Length Bearing (true) Bearing (mag) Surface Threshold Offset Overrun Length
07L 131 ft / 40 m 6,570 ft / 2,002 m 64.09° 61.73° Asphalt 0 ft / 0 m 650 ft / 198 m
07R 131 ft / 40 m 4,827 ft / 1,471 m 64.00° 61.64° Asphalt 0 ft / 0 m 1,161 ft / 354 m
25L 131 ft / 40 m 4,827 ft / 1,471 m 244.02° 241.66° Asphalt 0 ft / 0 m 1,161 ft / 354 m
25R 131 ft / 40 m 6,570 ft / 2,002 m 244.11° 241.75° Asphalt 0 ft / 0 m 650 ft / 198 m

LSZB

Details ICAO LSZB (BRN)
Name Bern-Belp
Region Switzerland
Timezone Europe/Zurich (UTC+2.0)
Stats Elevation 1,672 ft / 510 m (AMSL)
Location 46.912547° 7.497672°
Runways 3
Magnetic Variation 2.135° E

METAR

LSZB 221750Z 24010KT 7000 RA SCT050TCU BKN090 12/12 Q1014 NOSIG

Decode

TAF

Not found

Destination Runways

ID Width Length Bearing (true) Bearing (mag) Surface Threshold Offset Overrun Length
14 98 ft / 30 m 5,677 ft / 1,730 m 140.23° 138.10° Asphalt 656 ft / 200 m 0 ft / 0 m
14L 98 ft / 30 m 2,125 ft / 648 m 140.01° 137.88° Grass 0 ft / 0 m 0 ft / 0 m
14R 98 ft / 30 m 2,123 ft / 647 m 140.14° 138.01° Grass 0 ft / 0 m 0 ft / 0 m
32 98 ft / 30 m 5,677 ft / 1,730 m 320.24° 318.11° Asphalt 0 ft / 0 m 0 ft / 0 m
32L 98 ft / 30 m 2,123 ft / 647 m 320.14° 318.01° Grass 0 ft / 0 m 0 ft / 0 m
32R 98 ft / 30 m 2,125 ft / 648 m 320.01° 317.88° Grass 0 ft / 0 m 0 ft / 0 m

Approach Navaids

Runway Type Ident Frequency Range Bearing (true) Bearing (mag) Slope Elevation
14 Localiser IBE 110.10 MHz 18 nm / 33 km 140.24° 138.10° - 1,702 ft / 519 m (AMSL)
14 Glidescope IBE 110.10 MHz 10 nm / 19 km 140.24° 138.10° 4.00° 1,664 ft / 507 m (AMSL)
14 DME IBE 110.10 MHz 18 nm / 33 km - - - 1,684 ft / 513 m (AMSL)

Popular Alternatives